Location: Gro�sch�nbrunn
(49.5760°N, 11.8868°E)
Time: 07:13:20
(UTC+00:00)

NOSS 8 (F) - Pass Details

Date: 18 September 2020
Orbit: 385 x 1787 km, 63.3° (Epoch: 19 October)

Event Time Altitude Azimuth Distance (km) Brightness Sun altitude
Rises 18:06:13 0° 222° (SW) 2,459 8.6 -8.5°
Reaches altitude 10° 18:08:24 10° 223° (SW) 1,497 7.5 -8.8°
Maximum altitude 18:11:34 84° 314° (NW) 398 4.1 -9.3°
Drops below altitude 10° 18:14:35 10° 42° (NE) 1,428 6.7 -9.8°
Sets 18:16:38 0° 43° (NE) 2,331 7.7 -10.1°
